Hourly Data Report for October 11, 2014

All times are specified in Local Standard Time (LST). Add 1 hour to adjust for Daylight Saving Time where and when it is observed.

CAPE DORSET A
NUNAVUT

64°13'49.000" N
76°31'30.000" W
48.20 m
2400637
71366
YTE

Download Data

Hourly Data (October 2014)
Hourly Data Report for October 11, 2014
Temp Definition
°C
Dew Point Temp Definition
°C
Rel Hum Definition
%
Wind Dir Definition
10's deg

Wind Spd Definition
km/h
Visibility Definition
km
Stn Press Definition
kPa
Hmdx Definition


Wind Chill Definition


Weather Definition


TIME
00:00 Legend Double Dagger -1.0 -1.1 99 25 15 6.4 97.95   -6 Fog
01:00 Legend Double Dagger -0.9 LegendMM LegendMM 24 11 8.1 97.95   -5 Haze
02:00 Legend Double Dagger -0.8 LegendMM LegendMM   0 16.1 98.01     LegendNANA
03:00 Legend Double Dagger -0.7 LegendMM LegendMM 15 5 14.5 98.03   -2 LegendNANA
04:00 Legend Double Dagger -0.7 LegendMM LegendMM 21 13 4.8 98.03   -5 Snow
05:00 Legend Double Dagger -1.0 LegendMM LegendMM 21 17 8.1 98.10   -6 Haze
06:00 Legend Double Dagger -1.0 LegendMM LegendMM 17 13 12.9 98.13   -5 LegendNANA
07:00 Legend Double Dagger -0.7 LegendMM LegendMM 17 13 8.1 98.19   -5 Haze
08:00 Legend Double Dagger -0.7 LegendMM LegendMM 17 18 12.9 98.23   -6 Freezing Rain
09:00 Legend Double Dagger -0.9 -0.9 100 18 17 9.7 98.29   -6 Freezing Rain,Fog
10:00 Legend Double Dagger -1.0 -1.8 94 20 21 4.8 98.32   -7 Snow
11:00 Legend Double Dagger -1.1 -2.1 93 20 18 4.8 98.37   -6 Snow
12:00 Legend Double Dagger -1.5 -2.6 93 21 17 2.4 98.42   -7 Snow
13:00 Legend Double Dagger -1.4 -2.4 93 20 15 6.4 98.46   -6 Snow
14:00 Legend Double Dagger -1.6 -2.7 93 19 15 4.8 98.48   -6 Snow
15:00 Legend Double Dagger -1.8 -2.9 92 18 11 11.3 98.50   -6 Snow
16:00 Legend Double Dagger -2.0 -2.8 94 19 13 4.8 98.50   -6 Snow
17:00 Legend Double Dagger -2.2 -3.0 94 LegendMM 4 9.7 98.52   -4 Snow
18:00 Legend Double Dagger -2.2 -3.2 93 18 5 14.5 98.53   -4 Snow
19:00 Legend Double Dagger -2.3 -3.3 93 16 5 4.8 98.54   -4 Snow
20:00 Legend Double Dagger -2.2 -3.0 94 19 11 3.2 98.56   -6 Snow
21:00 Legend Double Dagger -2.3 -3.2 94 19 9 2.8 98.54   -6 Snow
22:00 Legend Double Dagger -2.3 -3.3 93 18 8 6.4 98.53   -5 Snow
23:00 Legend Double Dagger -2.1 -2.8 95 20 13 3.6 98.52   -7 Snow

Notes on Data Quality.

Legend

  • E = Estimated
  • M = Missing
  • NA = Not Available
  • ‡ = Partner data that is not subject to review by the National Climate Archives
Date modified: